This is the latest recevied weather packets stored in our database for station/object KC9Q. If no packets are shown the sender has not sent any weather packets the latest 10 day(s).
| Time | Temp. | Humidity | Pressure | Rain* | Wind** | Luminosity | Snow |
|---|---|---|---|---|---|---|---|
| 1777933338 | 26.67° C | 36% | 1006.9 hPa | 0 mm | - | 65 W/m² | - |
| 1777933035 | 26.67° C | 36% | 1007.1 hPa | 0 mm | - | 67 W/m² | - |
| 1777932732 | 26.67° C | 36% | 1007.2 hPa | 0 mm | - | 69 W/m² | - |
| 1777932428 | 26.67° C | 36% | 1007.1 hPa | 0 mm | - | 75 W/m² | - |
| 1777932126 | 26.67° C | 36% | 1007.1 hPa | 0 mm | - | 86 W/m² | - |
| 1777931822 | 26.67° C | 35% | 1007.1 hPa | 0 mm | - | 79 W/m² | - |
| 1777931520 | 26.67° C | 35% | 1007.2 hPa | 0 mm | - | 79 W/m² | - |
| 1777931215 | 26.67° C | 35% | 1007.1 hPa | 0 mm | - | 239 W/m² | - |
| 1777930912 | 27.22° C | 35% | 1007.1 hPa | 0 mm | - | 423 W/m² | - |
| 1777930608 | 26.67° C | 34% | 1007.2 hPa | 0 mm | - | 456 W/m² | - |
| 1777930305 | 27.22° C | 34% | 1007.2 hPa | 0 mm | - | 434 W/m² | - |
| 1777930002 | 27.22° C | 33% | 1007.2 hPa | 0 mm | - | 475 W/m² | - |
| 1777929698 | 27.22° C | 33% | 1007.1 hPa | 0 mm | - | 516 W/m² | - |
| 1777929396 | 26.67° C | 33% | 1007.2 hPa | 0 mm | - | 513 W/m² | - |
| 1777929092 | 27.22° C | 33% | 1007.2 hPa | 0 mm | - | 545 W/m² | - |
| 1777928790 | 27.22° C | 32% | 1007.1 hPa | 0 mm | - | 565 W/m² | - |
| 1777928486 | 27.22° C | 31% | 1007 hPa | 0 mm | - | 591 W/m² | - |
| 1777928184 | 27.22° C | 31% | 1007.1 hPa | 0 mm | - | 605 W/m² | - |
| 1777927881 | 27.22° C | 31% | 1007 hPa | 0 mm | - | 633 W/m² | - |
| 1777927580 | 27.22° C | 32% | 1007 hPa | 0 mm | - | 627 W/m² | - |
| 1777927278 | 27.22° C | 34% | 1006.9 hPa | 0 mm | - | 667 W/m² | - |
| 1777926977 | 27.22° C | 32% | 1007.2 hPa | 0 mm | - | 683 W/m² | - |
| 1777926674 | 27.22° C | 33% | 1006.9 hPa | 0 mm | - | 700 W/m² | - |
| 1777926368 | 27.22° C | 33% | 1007.2 hPa | 0 mm | - | 712 W/m² | - |
| 1777926066 | 26.67° C | 33% | 1007.1 hPa | 0 mm | - | 714 W/m² | - |
* Rain latest hour (hover to see other rain measurements)
** Current wind speed in m/s (hover to see current wind gust speed)